Showing default

COSMOS 2585, 63288

Orbit data source: Space-Track

COSMOS 2585, 63288 is a payload satellite owned by VVKO VKS (CIS) in LEO that was launched on Sun, 16 Mar 2025 UTC via an ANGARA-1.2 launch vehicle from the Plesetsk Missile And Space Complex (PKMTR). Payload-class satellites include a variety of spacecraft equipped with specific instruments for various scientific and technological missions. These include communications satellites like Starlink; space stations such as the ISS; scientific satellites like the Hubble; Earth observation satellites from companies like Planet Labs, Umbra, and HawkEye 360; GPS; miniature CubeSats for education and research; and military/defense satellites.

Loading next visibility...
Identifier
63288, 2025-054A
Orbit
LEO
Last TLE update
11 hours ago
Origin
Manufacturer
Resehetnev ISS
Mission
Operational Defense Communications
Bus & Motor
STRELA-3M, Unknown motor
Mass
280 kg wet, 280 kg dry
Launch date (UTC)
2025-03-16 (4 months ago)
Launch vehicle
ANGARA-1.2
Launch site
Plesetsk Missile And Space Complex (PKMTR)
Object type
Payload
Rocket body
Debris
Shape & HBR
Cyl + 1 Ant, 7 m
Radar Cross Section
1.583 m², Large (>1 m²)

Expand to show TLE details & history

TLE from 11 hours ago
0 COSMOS 2585
1 63288U 25054A   25181.85438196  .00000038  00000-0  20176-3 0  9994
2 63288  82.4947 297.3025 0025193  82.5863 277.8078 12.42906494 13210
Epoch: 2025-06-30T20:30Z
TLE epoch observation values (Epoch: 2025-06-30T20:30:18.601Z)
Latitude
-0.00003°
Longitude
70.56678°
Altitude
1,494.36 km
Speed
7.118 km/s
True Right ascension
19h 49m 12s
True Declination
0° 00' 00"
Sunlit
Object was in full shadow at epoch
Visualization orbit readout
Latitude
-3.9107°
Longitude
-109.19561°
Altitude
1,501.742 km
Speed
7.112 km/s
Apparent Right ascension
07h 25m 51s
Apparent Declination
-20° 00' 42"
Sunlit
Object is in daylight
Visualization observer readout
Local Sidereal Time
18:46:45
Azimuth
334.31° NNW
Elevation
-68.403°
Doppler factor
1
Orbital elements
Apogee altitude
1,511.484 km
Perigee altitude
1,471.831 km
Semi-major axis
7,869.795 km
Eccentricity
0.00252
Inclination
82.4947°
RAAN
297.3025°
Arg. of periapsis
82.5863°
True anomaly
Unknown
Mean anomaly
277.8078°
Eccentric anomaly
Unknown
Mean motion
3.10884 °/min
Orbital period
115.8 mins
BSTAR
0.00020176
Loading maneuver chart data...
Loading SW <> Apogee altitude chart data...
Loading historical data...
Loading historical data...
Loading historical data...
Loading historical data...
Loading historical data...
Loading historical data...
Loading historical data...
Other satellites on launch #54 in the year 2025 (2025-03-16 UTC)

COSMOS 2585 Visibility forecast

Observer location: undefined°, undefined°

Span
Click to sort rows by Start time (UTC) header in descending order
Start Az.
Max El. time (UTC)
Max El. Az.
Max El.
End time (UTC)
End Az.
16 mins2025-07-01 08:10:50.842Z175.606° S2025-07-01 08:18:50.842Z81.338° E43.765°2025-07-01 08:26:50.842Z11.731° NNE
11 mins2025-07-01 10:10:50.842Z249.866° W2025-07-01 10:15:50.842Z289.656° WNW21.547°2025-07-01 10:21:50.842Z338.722° N
14 mins2025-07-01 18:22:50.842Z13.929° NNE2025-07-01 18:28:50.842Z67.383° ENE29.665°2025-07-01 18:36:50.842Z134.511° SE
14 mins2025-07-01 20:19:50.842Z337.2° NNW2025-07-01 20:25:50.842Z277.597° WNW37.399°2025-07-01 20:33:50.842Z200.536° SSW
|